| time (UTC) | temp F | wind direction | speed MPH | gust MPH | rain 1hr in | rain 24hr in | rain mn in | humidity % | barometer mb |
| 20260905211958 | 69 | 86 | 3.0 | 13.0 | 0.00 | 0.00 | 0.00 | 76 | 1010.6 |
| 20260905210958 | 69 | 36 | 6.0 | 13.0 | 0.00 | 0.00 | 0.00 | 75 | 1011.0 |
| 20260905205958 | 70 | 88 | 5.0 | 10.0 | 0.00 | 0.00 | 0.00 | 75 | 1010.7 |
| 20260905205019 | 70 | 52 | 5.0 | 12.0 | 0.00 | 0.00 | 0.00 | 74 | 1010.6 |
| 20260905203958 | 71 | 36 | 6.0 | 12.0 | 0.00 | 0.00 | 0.00 | 72 | 1010.4 |
| 20260905202958 | 71 | 59 | 4.0 | 12.0 | 0.00 | 0.00 | 0.00 | 73 | 1010.3 |
| 20260905201958 | 72 | 85 | 6.0 | 11.0 | 0.00 | 0.00 | 0.00 | 73 | 1010.3 |
| 20260905200958 | 71 | 28 | 3.0 | 13.0 | 0.00 | 0.00 | 0.00 | 74 | 1010.2 |
| 20260905195958 | 72 | 17 | 8.0 | 13.0 | 0.00 | 0.00 | 0.00 | 73 | 1010.1 |
| 20260905194959 | 72 | 23 | 4.0 | 8.0 | 0.00 | 0.00 | 0.00 | 75 | 1010.3 |
| 20260905193958 | 73 | 106 | 3.0 | 15.0 | 0.00 | 0.00 | 0.00 | 74 | 1010.4 |
| 20260905192958 | 74 | 101 | 6.0 | 15.0 | 0.00 | 0.00 | 0.00 | 73 | 1010.1 |
| 20260905191958 | 73 | 13 | 5.0 | 16.0 | 0.00 | 0.00 | 0.00 | 73 | 1010.3 |
| 20260905190958 | 72 | 33 | 8.0 | 16.0 | 0.00 | 0.00 | 0.00 | 74 | 1010.1 |
| 20260905190019 | 72 | 348 | 11.0 | 15.0 | 0.00 | 0.00 | 0.00 | 71 | 1010.1 |
| 20260905184958 | 74 | 43 | 6.0 | 15.0 | 0.00 | 0.00 | 0.00 | 71 | 1010.1 |
| 20260905183958 | 74 | 39 | 5.0 | 15.0 | 0.00 | 0.00 | 0.00 | 73 | 1010.1 |
| 20260905182958 | 74 | 3 | 5.0 | 12.0 | 0.00 | 0.00 | 0.00 | 70 | 1010.3 |
| 20260905181958 | 74 | 13 | 2.0 | 12.0 | 0.00 | 0.00 | 0.00 | 74 | 1010.2 |
| 20260905180959 | 73 | 66 | 4.0 | 13.0 | 0.00 | 0.00 | 0.00 | 73 | 1010.3 |
| 20260905175959 | 74 | 8 | 5.0 | 13.0 | 0.00 | 0.00 | 0.00 | 71 | 1010.4 |
| 20260905174959 | 74 | 43 | 4.0 | 10.0 | 0.00 | 0.00 | 0.00 | 72 | 1010.3 |
| 20260905173959 | 74 | 353 | 6.0 | 10.0 | 0.00 | 0.00 | 0.00 | 70 | 1010.1 |
| 20260905172959 | 74 | 34 | 6.0 | 10.0 | 0.00 | 0.00 | 0.00 | 74 | 1009.9 |
| 20260905171959 | 73 | 45 | 5.0 | 14.0 | 0.00 | 0.00 | 0.00 | 73 | 1010.1 |
| 20260905170959 | 73 | 56 | 5.0 | 14.0 | 0.00 | 0.00 | 0.00 | 73 | 1010.1 |
| 20260905170000 | 74 | 220 | 4.0 | 13.0 | 0.00 | 0.00 | 0.00 | 72 | 1010.0 |
| 20260905164959 | 74 | 16 | 4.0 | 13.0 | 0.00 | 0.00 | 0.00 | 71 | 1010.1 |
| 20260905163959 | 74 | 54 | 2.0 | 17.0 | 0.00 | 0.00 | 0.00 | 71 | 1010.1 |
| 20260905162959 | 74 | 354 | 8.0 | 17.0 | 0.00 | 0.00 | 0.00 | 71 | 1010.0 |
| 20260905161959 | 76 | 4 | 8.0 | 17.0 | 0.00 | 0.00 | 0.00 | 69 | 1009.4 |
| 20260905160959 | 76 | 12 | 7.0 | 17.0 | 0.00 | 0.00 | 0.00 | 69 | 1009.5 |
| 20260905155959 | 75 | 98 | 5.0 | 17.0 | 0.00 | 0.00 | 0.00 | 71 | 1009.4 |
| 20260905154959 | 76 | 9 | 10.0 | 15.0 | 0.00 | 0.00 | 0.00 | 67 | 1009.5 |
| 20260905154020 | 75 | 356 | 6.0 | 21.0 | 0.00 | 0.00 | 0.00 | 68 | 1009.2 |
| 20260905153020 | 76 | 2 | 9.0 | 21.0 | 0.00 | 0.00 | 0.00 | 66 | 1009.0 |
| 20260905151959 | 75 | 2 | 11.0 | 18.0 | 0.00 | 0.00 | 0.00 | 66 | 1009.1 |
| 20260905151000 | 76 | 349 | 8.0 | 14.0 | 0.00 | 0.00 | 0.00 | 68 | 1009.1 |
| 20260905145959 | 77 | 353 | 6.0 | 14.0 | 0.00 | 0.00 | 0.00 | 68 | 1009.4 |
| 20260905145000 | 78 | 20 | 3.0 | 15.0 | 0.00 | 0.00 | 0.00 | 68 | 1009.4 |
| 20260905144000 | 76 | 8 | 7.0 | 16.0 | 0.00 | 0.00 | 0.00 | 66 | 1009.4 |
| 20260905143000 | 77 | 17 | 5.0 | 16.0 | 0.00 | 0.00 | 0.00 | 67 | 1009.3 |
| 20260905142000 | 77 | 352 | 8.0 | 16.0 | 0.00 | 0.00 | 0.00 | 66 | 1009.1 |
| 20260905141000 | 77 | 11 | 8.0 | 15.0 | 0.00 | 0.00 | 0.00 | 66 | 1009.0 |
| 20260905140000 | 80 | 352 | 4.0 | 12.0 | 0.00 | 0.00 | 0.00 | 65 | 1009.1 |
| 20260905135000 | 79 | 331 | 5.0 | 12.0 | 0.00 | 0.00 | 0.00 | 70 | 1009.2 |
| 20260905134000 | 77 | 43 | 3.0 | 15.0 | 0.00 | 0.00 | 0.00 | 72 | 1009.2 |
| 20260905133021 | 76 | 23 | 4.0 | 16.0 | 0.00 | 0.00 | 0.00 | 73 | 1009.3 |
| 20260905132000 | 74 | 349 | 11.0 | 16.0 | 0.00 | 0.00 | 0.00 | 72 | 1009.1 |
| 20260905131022 | 74 | 20 | 4.0 | 16.0 | 0.00 | 0.00 | 0.00 | 77 | 1009.0 |
| 20260905130000 | 72 | 360 | 6.0 | 16.0 | 0.00 | 0.00 | 0.00 | 77 | 1009.2 |
| 20260905125000 | 70 | 5 | 6.0 | 17.0 | 0.00 | 0.00 | 0.00 | 81 | 1009.1 |
| 20260905124021 | 68 | 1 | 8.0 | 17.0 | 0.00 | 0.00 | 0.00 | 82 | 1008.9 |
| 20260905123000 | 67 | 360 | 9.0 | 17.0 | 0.00 | 0.00 | 0.00 | 84 | 1008.8 |
| 20260905122000 | 66 | 359 | 6.0 | 12.0 | 0.00 | 0.00 | 0.00 | 86 | 1008.6 |
| 20260905121000 | 65 | 4 | 6.0 | 12.0 | 0.00 | 0.00 | 0.00 | 87 | 1008.8 |
| 20260905120000 | 64 | 351 | 7.0 | 11.0 | 0.00 | 0.00 | 0.00 | 87 | 1008.6 |
| 20260905115022 | 64 | 343 | 8.0 | 11.0 | 0.00 | 0.00 | 0.00 | 87 | 1008.7 |
| 20260905114000 | 64 | 358 | 5.0 | 11.0 | 0.00 | 0.00 | 0.00 | 88 | 1008.7 |
| 20260905113001 | 63 | 345 | 10.0 | 11.0 | 0.00 | 0.00 | 0.00 | 88 | 1008.6 |
| 20260905112001 | 63 | 359 | 5.0 | 10.0 | 0.00 | 0.00 | 0.00 | 88 | 1008.8 |
| 20260905111002 | 63 | 344 | 7.0 | 9.0 | 0.00 | 0.00 | 0.00 | 88 | 1008.5 |
| 20260905110001 | 63 | 358 | 6.0 | 11.0 | 0.00 | 0.00 | 0.00 | 88 | 1008.4 |
| 20260905105001 | 62 | 344 | 6.0 | 11.0 | 0.00 | 0.00 | 0.00 | 88 | 1008.2 |
| 20260905104001 | 62 | 347 | 5.0 | 12.0 | 0.00 | 0.00 | 0.00 | 88 | 1008.2 |
| 20260905103001 | 62 | 355 | 6.0 | 12.0 | 0.00 | 0.00 | 0.00 | 88 | 1008.1 |
| 20260905102001 | 63 | 351 | 7.0 | 12.0 | 0.00 | 0.00 | 0.00 | 87 | 1008.1 |
| 20260905101001 | 63 | 346 | 8.0 | 13.0 | 0.00 | 0.00 | 0.00 | 87 | 1008.0 |
| 20260905100001 | 63 | 356 | 8.0 | 13.0 | 0.00 | 0.00 | 0.00 | 87 | 1008.0 |
| 20260905095001 | 63 | 333 | 7.0 | 13.0 | 0.00 | 0.00 | 0.00 | 87 | 1008.1 |
| 20260905094001 | 63 | 334 | 8.0 | 14.0 | 0.00 | 0.00 | 0.00 | 87 | 1008.1 |
| 20260905093001 | 63 | 348 | 9.0 | 14.0 | 0.00 | 0.00 | 0.00 | 88 | 1008.1 |
| 20260905092001 | 63 | 343 | 8.0 | 14.0 | 0.00 | 0.00 | 0.00 | 88 | 1007.9 |
| 20260905091001 | 62 | 337 | 4.0 | 6.0 | 0.00 | 0.00 | 0.00 | 89 | 1008.0 |
| 20260905090001 | 63 | 317 | 4.0 | 6.0 | 0.00 | 0.00 | 0.00 | 88 | 1008.0 |
| 20260905085001 | 63 | 342 | 3.0 | 6.0 | 0.00 | 0.00 | 0.00 | 88 | 1008.0 |
| 20260905084023 | 63 | 312 | 3.0 | 7.0 | 0.00 | 0.00 | 0.00 | 88 | 1008.0 |
| 20260905083001 | 63 | 298 | 4.0 | 7.0 | 0.00 | 0.00 | 0.00 | 87 | 1008.0 |
| 20260905082002 | 63 | 310 | 4.0 | 7.0 | 0.00 | 0.00 | 0.00 | 87 | 1008.0 |
| 20260905081002 | 63 | 335 | 4.0 | 7.0 | 0.00 | 0.00 | 0.00 | 87 | 1008.2 |
| 20260905080001 | 64 | 333 | 5.0 | 7.0 | 0.00 | 0.00 | 0.00 | 87 | 1007.9 |
| 20260905075002 | 64 | 313 | 3.0 | 6.0 | 0.00 | 0.00 | 0.00 | 87 | 1008.0 |
| 20260905074002 | 64 | 275 | 2.0 | 9.0 | 0.00 | 0.00 | 0.00 | 86 | 1008.0 |
| 20260905073002 | 64 | 335 | 5.0 | 9.0 | 0.00 | 0.00 | 0.00 | 86 | 1008.2 |
| 20260905072002 | 64 | 266 | 3.0 | 7.0 | 0.00 | 0.00 | 0.00 | 87 | 1008.0 |
| 20260905071023 | 64 | 342 | 4.0 | 7.0 | 0.00 | 0.00 | 0.00 | 87 | 1008.1 |
| 20260905070002 | 64 | 344 | 4.0 | 7.0 | 0.00 | 0.00 | 0.00 | 87 | 1008.3 |
| 20260905065002 | 64 | 8 | 4.0 | 7.0 | 0.00 | 0.00 | 0.00 | 87 | 1008.3 |
| 20260905064023 | 65 | 315 | 3.0 | 7.0 | 0.00 | 0.00 | 0.00 | 87 | 1008.6 |
| 20260905063002 | 65 | 352 | 3.0 | 6.0 | 0.00 | 0.00 | 0.00 | 87 | 1008.6 |
| 20260905062003 | 65 | 314 | 4.0 | 6.0 | 0.00 | 0.00 | 0.00 | 87 | 1008.5 |
| 20260905061002 | 65 | 296 | 4.0 | 7.0 | 0.00 | 0.00 | 0.00 | 87 | 1008.6 |
| 20260905060002 | 65 | 304 | 3.0 | 7.0 | 0.00 | 0.00 | 0.00 | 88 | 1008.6 |
| 20260905055002 | 65 | 328 | 5.0 | 7.0 | 0.00 | 0.00 | 0.00 | 88 | 1008.5 |
| 20260905054002 | 65 | 356 | 4.0 | 6.0 | 0.00 | 0.00 | 0.00 | 88 | 1008.7 |
| 20260905053003 | 66 | 310 | 3.0 | 6.0 | 0.00 | 0.00 | 0.00 | 88 | 1008.8 |
| 20260905052002 | 66 | 282 | 4.0 | 7.0 | 0.00 | 0.00 | 0.00 | 89 | 1008.6 |
| 20260905051002 | 66 | 252 | 3.0 | 7.0 | 0.00 | 0.00 | 0.00 | 90 | 1008.6 |
| 20260905050002 | 66 | 246 | 3.0 | 8.0 | 0.00 | 0.00 | 0.00 | 90 | 1008.5 |
| 20260905045003 | 66 | 244 | 4.0 | 9.0 | 0.00 | 0.00 | 0.00 | 91 | 1008.7 |
| 20260905044003 | 66 | 253 | 4.0 | 9.0 | 0.00 | 0.00 | 0.00 | 91 | 1008.8 |
| 20260905043003 | 67 | 250 | 3.0 | 8.0 | 0.00 | 0.00 | 0.00 | 90 | 1008.8 |
| 20260905042004 | 67 | 257 | 3.0 | 7.0 | 0.00 | 0.00 | 0.00 | 90 | 1008.8 |
| 20260905041003 | 67 | 259 | 4.0 | 7.0 | 0.00 | 0.00 | 0.00 | 91 | 1008.7 |
| 20260905040003 | 67 | 237 | 3.0 | 7.0 | 0.00 | 0.00 | 0.00 | 91 | 1008.5 |
| 20260905034956 | 67 | 273 | 3.0 | 7.0 | 0.00 | 0.00 | 0.00 | 90 | 1008.5 |
| 20260905034018 | 67 | 347 | 4.0 | 5.0 | 0.00 | 0.00 | 0.00 | 90 | 1008.8 |
| 20260905032956 | 67 | 26 | 1.0 | 5.0 | 0.00 | 0.00 | 0.00 | 90 | 1008.5 |
| 20260905031956 | 67 | 329 | 2.0 | 5.0 | 0.00 | 0.00 | 0.00 | 90 | 1008.5 |
| 20260905030956 | 67 | 328 | 2.0 | 4.0 | 0.00 | 0.00 | 0.00 | 90 | 1008.6 |
| 20260905030017 | 68 | 9 | 0.0 | 3.0 | 0.00 | 0.00 | 0.00 | 89 | 1008.7 |
| 20260905024956 | 68 | 0 | 0.0 | 1.0 | 0.00 | 0.00 | 0.00 | 88 | 1008.5 |
| 20260905023956 | 68 | 179 | 0.0 | 1.0 | 0.00 | 0.00 | 0.00 | 88 | 1008.6 |
| 20260905022956 | 68 | 185 | 0.0 | 2.0 | 0.00 | 0.00 | 0.00 | 88 | 1008.5 |
| 20260905021957 | 69 | 78 | 0.0 | 2.0 | 0.00 | 0.00 | 0.00 | 87 | 1008.6 |
| 20260905021017 | 69 | 93 | 1.0 | 2.0 | 0.00 | 0.00 | 0.00 | 87 | 1008.6 |
| 20260905020017 | 69 | 331 | 0.0 | 2.0 | 0.00 | 0.00 | 0.00 | 86 | 1008.8 |
| 20260905014957 | 70 | 165 | 0.0 | 3.0 | 0.00 | 0.00 | 0.00 | 86 | 1008.8 |
| 20260905013956 | 70 | 168 | 1.0 | 3.0 | 0.00 | 0.00 | 0.00 | 86 | 1009.1 |
| 20260905012956 | 70 | 175 | 2.0 | 3.0 | 0.00 | 0.00 | 0.00 | 85 | 1009.1 |
| 20260905011956 | 71 | 177 | 0.0 | 3.0 | 0.00 | 0.00 | 0.00 | 85 | 1009.1 |
| 20260905011017 | 71 | 191 | 3.0 | 3.0 | 0.00 | 0.00 | 0.00 | 85 | 1009.3 |
| 20260905010018 | 72 | 0 | 0.0 | 2.0 | 0.00 | 0.00 | 0.00 | 84 | 1009.3 |
| 20260905005017 | 72 | 92 | 0.0 | 2.0 | 0.00 | 0.00 | 0.00 | 85 | 1009.0 |
| 20260905003956 | 72 | 347 | 0.0 | 2.0 | 0.00 | 0.00 | 0.00 | 85 | 1009.2 |
| 20260905002956 | 72 | 0 | 0.0 | 3.0 | 0.00 | 0.00 | 0.00 | 84 | 1009.0 |
| 20260905001957 | 72 | 354 | 0.0 | 5.0 | 0.00 | 0.00 | 0.00 | 84 | 1008.7 |
| 20260905000957 | 72 | 359 | 2.0 | 5.0 | 0.00 | 0.00 | 0.00 | 84 | 1008.7 |
| 20260904235958 | 73 | 58 | 1.0 | 3.0 | 0.00 | 0.00 | 0.00 | 84 | 1008.6 |
| 20260904234957 | 74 | 209 | 0.0 | 3.0 | 0.00 | 0.00 | 0.00 | 84 | 1008.5 |
| 20260904233957 | 74 | 98 | 1.0 | 4.0 | 0.00 | 0.00 | 0.00 | 84 | 1008.5 |
| 20260904232957 | 74 | 186 | 1.0 | 4.0 | 0.00 | 0.00 | 0.00 | 84 | 1008.2 |
| 20260904231957 | 75 | 179 | 3.0 | 4.0 | 0.00 | 0.00 | 0.00 | 84 | 1008.3 |
| 20260904230957 | 75 | 58 | 0.0 | 3.0 | 0.00 | 0.00 | 0.00 | 83 | 1008.2 |
| 20260904225957 | 76 | 136 | 0.0 | 3.0 | 0.00 | 0.00 | 0.00 | 82 | 1008.4 |
| 20260904224957 | 76 | 194 | 3.0 | 3.0 | 0.00 | 0.00 | 0.00 | 82 | 1008.4 |
| 20260904223957 | 76 | 140 | 0.0 | 4.0 | 0.00 | 0.00 | 0.00 | 81 | 1008.2 |
| 20260904222957 | 77 | 181 | 0.0 | 6.0 | 0.00 | 0.00 | 0.00 | 80 | 1008.1 |
| 20260904222018 | 77 | 220 | 0.0 | 8.0 | 0.00 | 0.00 | 0.00 | 80 | 1008.3 |
| 20260904220957 | 77 | 169 | 3.0 | 8.0 | 0.00 | 0.00 | 0.00 | 80 | 1008.2 |
| 20260904215957 | 77 | 177 | 4.0 | 8.0 | 0.00 | 0.00 | 0.00 | 79 | 1008.2 |
| 20260904215019 | 77 | 182 | 4.0 | 8.0 | 0.00 | 0.00 | 0.00 | 79 | 1008.0 |
| 20260904213957 | 77 | 184 | 4.0 | 9.0 | 0.00 | 0.00 | 0.00 | 79 | 1008.0 |
| 20260904213018 | 78 | 181 | 3.0 | 9.0 | 0.00 | 0.00 | 0.00 | 80 | 1008.0 |